Location: Gro� Glienicke
(52.4675°N, 13.1079°E)
Time: 19:08:24
(UTC+00:00)

CZ-4C R/B - Pass Details

Date: 06 July 2020
Orbit: 632 x 1370 km, 63.4° (Epoch: 11 August)

Event Time Altitude Azimuth Distance (km) Brightness Sun altitude
Rises 20:20:21 0° 295° (WNW) 3,453 6.7 -6.1°
Reaches altitude 10° 20:22:56 10° 306° (NW) 2,625 6.3 -6.4°
Maximum altitude 20:28:32 33° 10° (N) 1,677 4.3 -6.9°
Drops below altitude 10° 20:35:06 10° 72° (ENE) 3,105 4.9 -7.5°
Sets 20:38:25 0° 82° (E) 4,175 5.5 -7.8°
